Terminal Aerodrome Forecast
Issued by NWS Atlanta, GA

Home | Current Version | Previous Version | Text Only | Print | Product List | Glossary On
Versions: 1 2 3 4 5 6 7 8 9 10 11 12 13 14 15 16 17 18 19 20 21 22 23 24 25 26 27 28 29 30 31 32 33 34 35 36 37
651
FTAK31 PAJN 031607 AAA
TAFAHN
TAF AMD
PAHN 031607Z 0316/0412 31010KT 5SM -SHSN BR SCT012 OVC025
      TEMPO 0316/0320 2SM -SHSN BR OVC012
     FM032200 30012G20KT P6SM VCSH BKN025 OVC050
      AMD LTD TO CLD VIS AND WIND=

USA.gov is the U.S. government's official web portal to all federal, state and local government web resources and services.